TimeCST,TemperatureF,Dew PointF,Humidity,Sea Level PressureIn,VisibilityMPH,Wind Direction,Wind SpeedMPH,Gust SpeedMPH,PrecipitationIn,Events,Conditions,WindDirDegrees,DateUTC
12:53 AM,-6.0,-9.9,83,30.33,10.0,SSE,9.2,-,N/A,,Overcast,150,2014-01-09 06:53:00
1:53 AM,-5.1,-9.0,83,30.28,8.0,SSE,13.8,-,N/A,,Overcast,150,2014-01-09 07:53:00
2:53 AM,-2.9,-8.0,79,30.25,10.0,SSE,13.8,-,N/A,,Overcast,150,2014-01-09 08:53:00
3:22 AM,-0.9,-7.1,75,30.11,10.0,SSE,15.0,-,N/A,,Overcast,150,2014-01-09 09:22:00
3:53 AM,-0.0,-5.1,79,30.21,6.0,SSE,16.1,-,N/A,,Haze,160,2014-01-09 09:53:00
4:26 AM,1.0,-4.0,79,30.07,6.0,South,17.3,-,N/A,,Haze,170,2014-01-09 10:26:00
4:53 AM,1.9,-4.0,76,30.18,9.0,SSE,13.8,-,N/A,,Overcast,160,2014-01-09 10:53:00
5:53 AM,5.0,-0.9,76,30.14,7.0,South,16.1,-,N/A,,Overcast,170,2014-01-09 11:53:00
6:53 AM,5.0,-0.9,76,30.11,8.0,SSE,12.7,23.0,N/A,,Overcast,160,2014-01-09 12:53:00
7:53 AM,8.1,1.9,76,30.09,8.0,South,13.8,-,N/A,,Overcast,170,2014-01-09 13:53:00
8:49 AM,10.4,5.0,79,29.95,8.0,South,19.6,-,N/A,,Overcast,170,2014-01-09 14:49:00
8:53 AM,10.0,5.0,80,30.08,9.0,South,17.3,-,N/A,,Overcast,170,2014-01-09 14:53:00
9:53 AM,12.0,7.0,80,30.07,10.0,South,15.0,-,N/A,,Overcast,170,2014-01-09 15:53:00
10:53 AM,14.0,9.0,80,30.04,10.0,South,17.3,-,N/A,,Mostly Cloudy,170,2014-01-09 16:53:00
11:53 AM,15.1,9.0,77,29.99,10.0,South,16.1,-,N/A,,Overcast,170,2014-01-09 17:53:00
12:53 PM,17.1,10.0,74,29.95,10.0,South,16.1,-,N/A,,Overcast,170,2014-01-09 18:53:00
1:53 PM,18.0,10.9,74,29.91,10.0,South,15.0,-,N/A,,Clear,170,2014-01-09 19:53:00
2:53 PM,19.0,10.9,71,29.90,10.0,South,16.1,-,N/A,,Clear,180,2014-01-09 20:53:00
3:53 PM,18.0,10.9,74,29.90,10.0,South,17.3,-,N/A,,Clear,170,2014-01-09 21:53:00
5:53 PM,16.0,12.0,84,29.89,10.0,South,12.7,-,N/A,,Overcast,170,2014-01-09 23:53:00
6:25 PM,16.0,10.9,81,29.79,10.0,South,13.8,-,N/A,,Partly Cloudy,170,2014-01-10 00:25:00
6:53 PM,15.1,10.9,84,29.88,9.0,South,11.5,-,N/A,,Clear,170,2014-01-10 00:53:00
7:53 PM,12.0,9.0,88,29.87,6.0,SSE,9.2,-,N/A,,Clear,160,2014-01-10 01:53:00
8:53 PM,12.9,10.0,88,29.83,4.0,SSE,11.5,-,N/A,,Clear,160,2014-01-10 02:53:00
9:53 PM,12.9,10.9,92,29.82,5.0,South,12.7,-,N/A,,Clear,170,2014-01-10 03:53:00
10:53 PM,12.9,10.9,92,29.79,3.0,SSE,9.2,-,N/A,,Clear,160,2014-01-10 04:53:00
11:53 PM,12.9,10.9,92,29.78,3.0,South,10.4,-,N/A,,Clear,170,2014-01-10 05:53:00